Regional Weather Roundup
Issued by NWS

Home | Current Version | Previous Version | Text Only | Print | Product List | Glossary Off
Versions: 1 2 3 4 5 6 7 8 9 10 11 12 13 14 15 16 17 18 19 20 21 22 23 24 25 26 27 28 29 30 31 32 33 34 35 36 37 38 39 40 41 42 43 44 45 46 47 48 49 50

000
ASUS43 KLSX 240810
RWRMO

WEATHER SUMMARY FOR MISSOURI
NATIONAL WEATHER SERVICE SPRINGFIELD MO
300 AM CDT SUN JUL 24 2016

NOTE: "FAIR" INDICATES FEW OR NO CLOUDS BELOW 12,000 FEET WITH NO
       SIGNIFICANT WEATHER AND/OR OBSTRUCTIONS TO VISIBILITY.
       CURRENT SKY AND/OR WEATHER CONDITIONS ARE NOT AVAILABLE FOR
       CHILLICOTHE AND FARMINGTON.

MOZ001>031-035>038-043-044-053-054-240900-
...NORTHERN AND WESTERN MISSOURI...

CITY           SKY/WX    TMP DP  RH WIND       PRES   REMARKS
KANSAS CTY INT PTCLDY    82  71  69 S9        29.87S
KANSAS C DTWN  CLEAR     85  71  63 S7        29.85F HX  90
LEE`S SUMMIT   CLEAR     84  73  69 S9        29.89S HX  90
ST JOSEPH      CLOUDY    82  71  69 SW7       29.85S
CHILLICOTHE      N/A     80  75  84 CALM      29.87F
KIRKSVILLE     CLEAR     77  74  90 S7        29.90F

$$
MOZ066>068-077>081-088>096-101>105-240900-
...SOUTHWEST MISSOURI...

CITY           SKY/WX    TMP DP  RH WIND       PRES   REMARKS
SPRINGFIELD    CLEAR     80  74  81 S12       29.95S
JOPLIN         CLEAR     80  72  76 S8        29.92F
BRANSON        PTCLDY    75  73  94 CALM      29.97F

$$
MOZ032>034-039>042-045>050-055>058-069>072-240900-
...CENTRAL MISSOURI...

CITY           SKY/WX    TMP DP  RH WIND       PRES   REMARKS
COLUMBIA       CLEAR     79  76  90 S8        29.93R
JEFFERSON CITY CLEAR     81  75  82 CALM      29.91F
ROLLA          CLEAR     79  73  82 S10       29.94F
SEDALIA        CLOUDY    81  76  84 S7        29.91F
WHITEMAN AFB   CLOUDY    81  81 100 S6        29.88F HX  92
OSAGE BEACH    CLEAR     78  73  84 SE6       29.94S

$$
MOZ051-052-059>065-240900-
...EAST CENTRAL MISSOURI...

CITY           SKY/WX    TMP DP  RH WIND       PRES   REMARKS
ST LOUIS INTL  PTCLDY    83  74  74 S3        29.93F
SPIRIT OF STL  CLEAR     79  76  90 S3        29.91F
ST CHARLES     PTCLDY    77  77 100 NE3       29.91F

$$
MOZ072>076-082>087-097>100-106>115-240900-
...SOUTH CENTRAL AND SOUTHEAST MISSOURI...

CITY           SKY/WX    TMP DP  RH WIND       PRES   REMARKS
CAPE GIRARDEAU CLEAR     77  75  93 CALM      29.93S
FARMINGTON     CLEAR     75  73  93 SE3       29.97S
POPLAR BLUFF   CLEAR     77  75  93 S3        29.93F
WEST PLAINS    CLEAR     75  69  81 CALM      29.98F

$$



USA.gov is the U.S. government's official web portal to all federal, state and local government web resources and services.